Regional Weather Roundup
Issued by NWS

Home | Current Version | Previous Version | Graphics & Text | Print | Product List | Glossary Off
Versions: 1 2 3 4 5 6 7 8 9 10 11 12 13 14 15 16 17 18 19 20 21 22 23 24 25 26 27 28 29 30 31 32 33 34 35 36 37 38 39 40 41 42 43 44 45 46 47 48 49 50

000
ASUS43 KDTX 011010
RWRMI
MICHIGAN HOURLY REGIONAL WEATHER ROUNDUP
NATIONAL WEATHER SERVICE DETROIT/PONTIAC MI
600 AM EDT MON SEP 01 2014

NOTE: "FAIR" INDICATES FEW OR NO CLOUDS BELOW 12,000 FEET WITH NO
SIGNIFICANT WEATHER AND/OR OBSTRUCTION TO VISIBILITY.

MIZ047>049-052>055-059>063-066>070-074>076-081>083-011100-
SOUTHEAST LOWER MICHIGAN

CITY           SKY/WX    TMP DP  RH WIND       PRES   REMARKS
ADRIAN         CLEAR     69  68  96 SW6       29.94S
ALMA           CLEAR     65  64  97 S6        29.88F FOG
BAD AXE        FOG       61  61 100 SW3       29.91R VSB 1/4
DETROIT CITY   MOCLDY    74  68  81 SW5       29.93S
DETROIT        PTCLDY    69  68  96 S6        29.94R FOG
FLINT          CLEAR     69  65  86 S5        29.90F
GROSSE ILE     PTCLDY    73  70  88 SW5       29.92S
HILLSDALE      CLOUDY    70  70 100 S3        29.93S FOG
HOWELL         CLEAR     67  67  98 CALM      29.92S FOG

CITY           SKY/WX    TMP DP  RH WIND       PRES   REMARKS
JACKSON        CLEAR     69  67  93 S3        29.91F
LAMBERTVILLE   PTCLDY    72  68  88 S3        29.94S
LANSING        CLEAR     69  67  93 S7        29.89F FOG
LAPEER         NOT AVBL
MASON          CLEAR     67  66  97 CALM      29.91F FOG
MONROE         MOCLDY    72  70  94 SW5       29.92S
MT. CLEMENS    CLEAR     71  68  92 SW5       29.91S
PONTIAC        CLEAR     68  66  93 CALM      29.92S FOG
PORT HOPE        N/A     67  64  90 VRB3      29.87F
PORT HURON     FOG       68  68 100 S3        29.92S VSB 1/4
TRI CITIES     PTCLDY    67  64  90 S7        29.88F
YPSILANTI      CLEAR     73  67  81 S8        29.93S
$$
MIZ043>046-050>051-056>058-064>065-071>073-077>080-011100-
SOUTHWEST LOWER MICHIGAN

CITY           SKY/WX    TMP DP  RH WIND       PRES   REMARKS
BATTLE CREEK   CLEAR     70  67  90 S9        29.89F FOG
BENTON HARBOR  CLEAR     70  68  93 SE6       29.85F
BIG RAPIDS     MOCLDY    62  62 100 SE7       29.84F FOG
COLDWATER      CLEAR     71  70  95 CALM      29.90F FOG
HOLLAND        CLEAR     72  69  90 S8        29.86S
GRAND RAPIDS   CLEAR     70  70 100 S8        29.86F FOG
KALAMAZOO      MOCLDY    70  68  93 S9        29.89S FOG
MARSHALL       CLEAR     68  68  98 S5        29.90S FOG
MUSKEGON       PTCLDY    73  69  87 S15G21    29.83F
$$
MIZ016>042-011100-
NORTHERN LOWER MICHIGAN

CITY           SKY/WX    TMP DP  RH WIND       PRES   REMARKS
ALPENA         FOG       60  60 100 SE3       29.87F VSB 1/4
BEAVER ISLAND  CLEAR     66  64  92 SE7       29.77F
BELLAIRE       PTCLDY    64  62  94 CALM      29.80F
CADILLAC       PTCLDY    66  65  97 S9        29.84F
CHARLEVOIX     CLEAR     64  64  98 SE6       29.82F
FRANKFORT      MOSUNNY   71  65  83 SE8       29.77F
GAYLORD        MOCLDY    61  60  97 S8        29.85F
GRAYLING       FOG       59  59 100 CALM      29.86F VSB 1/4
HARBOR SPRINGS CLEAR     62  61  95 NE5       29.81F
HOUGHTON LAKE  MOCLDY    61  60  97 SE3       29.87F FOG
MANISTEE       MOCLDY    66  64  94 SE3       29.80F
OSCODA         FOG       57  57 100 CALM      29.87F VSB<1/4
PELLSTON       MOCLDY    63  62  97 SE6       29.81F
TRAVERSE CITY  MOCLDY    68  62  81 VRB3      29.79F
$$
MIZ007>008-015-011100-
EASTERN UPPER MICHIGAN

CITY           SKY/WX    TMP DP  RH WIND       PRES   REMARKS
KINROSS        CLOUDY    61  61 100 SE13      29.82F
MACKINAC ISLAN PTCLDY    62  62  99 SE12      29.80F
NEWBERRY       PTCLDY    62  61  97 S9        29.76F
S. S. MARIE    CLOUDY    61  59  93 VRB6      29.82F
$$
MIZ004>006-011>014-085-011100-
CENTRAL UPPER MICHIGAN

CITY           SKY/WX    TMP DP  RH WIND       PRES   REMARKS
MANISTIQUE     MOCLDY    64  63  96 SE5       29.74F
ESCANABA       MOCLDY    66  63  88 S8        29.70F
MENOMINEE      PTCLDY    70  66  88 S9        29.69F
SAWYER-GWINN   FOG       64  64  97 S12       29.68F VSB 1
$$
MIZ001>003-009>011-084-011100-
WESTERN UPPER MICHIGAN

CITY           SKY/WX    TMP DP  RH WIND       PRES   REMARKS
IRON MOUNTAIN  CLOUDY    67  65  93 SE10      29.66F FOG
HOUGHTON       CLOUDY    66  63  90 S10       29.57F
COPPER HARBOR    N/A     66  62  87 SW8G17    29.58F
$$

ABBREVIATIONS USED IN REMARKS
   TC - TEMPERATURE IN CELSIUS
  WCI - WIND CHILL INDEX
   HX - HEAT INDEX
  VSB - VISIBILITY



USA.gov is the U.S. government's official web portal to all federal, state and local government web resources and services.